SCP
0 0 0 0 0 0 0 0 0 0 0 0 0 0 0 0 0 0 0 0 0 0 0 0 0 0 0 0 0 0 0 0 0 0 0 0 0 0 0 0 0 0 0
0 0 0 0 0 0 0 0 0 0 0 0 0 0 0 0 0 0 0 0 0 0 0 0 0 0 0 0 0 0 0 0 0 0 0 0 0 0 0 0 0 0 0
0 0 0 0 0 0 0 0 0 0 0 0 0 0 0 0 0 0 0 0 0 0 0 0 0 0 0 0 0 0 0 0 0 0 0 0 0 0 0 0 0 0 0
0 0 0 0 0 0 0 0 0 0 0 0 0 0 0 0 0 0 0 0 0 0 0 0 0 0 0 0 0 0 0 0 0 0 0 0 0 0 0 0 0 0 0
0 0 0 0 0 0 0 0 0 0 0 0 0 0 0 0 0 0 0 0 0 0 0 0 0 0 0 0 0 0 0 0 0 0 0 0 0 0 0 0 0 0 0
0 0 0 0 0 0 0 0 0 0 0 0 0 0 0 0 0 0 0 0 0 0 0 0 0 0 0 0 0 0 0 0 0 0 0 0 0 0 0 0 0 0 0
0 0 0 0 0 0 0 0 0 0 0 0 0 0 0 0 0 0 0 0 0 0 0 0 0 0 0 0 0 0 0 0 0 0 0 0 0 0 0 0 0 0 0
0 0 0 0 0 0 0 0 0 0 0 0 0 0 0 0 0 0 0 0 0 0 0 0 0 0 0 0 0 0 0 0 0 0 0 0 0 0 0 0 0 0 0
0 0 0 0 0 0 0 0 0 0 0 0 0 0 0 0 0 0 0 0 0 0 0 0 0 0 0 0 0 0 0 0 0 0 0 0 0 0 0 0 0 0 0
0 0 0 0 0 0 0 0 0 0 0 0 0 0 0 0 0 0 0 0 0 0 0 0 0 0 0 0 0 0 0 0 0 0 0 0 0 0 0 0 0 0 0
0 0 0 0 0 0 0 0 0 0 0 0 0 0 0 0 0 0 0 0 0 0 0 0 0 0 0 0 0 0 0 0 0 0 0 0 0 0 0 0 0 0 0
0 0 0 0 0 0 0 0 0 0 0 0 0 0 0 0 0 0 0 0 0 0 0 0 0 0 0 0 0 0 0 0 0 0 0 0 0 0 0 0 0 0 0
0 0 0 0 0 0 0 0 0 0 0 0 0 0 0 0 0 0 0 0 0 0 0 0 0 0 0 0 0 0 0 0 0 0 0 0 0 0 0 0 0 0 0
0 0 0 0 0 0 0 0 0 0 0 0 0 0 0 0 0 0 0 0 0 0 0 0 0 0 0 0 0 0 0 0 0 0 0 0 0 0 0 0 0 0 0
0 0 0 0 0 0 0 0 0 0 0 0 0 0 0 0 0 0 0 0 0 0 0 0 0 0 0 0 0 0 0 0 0 0 0 0 0 0 0 0 0 0 0
0 0 0 0 0 0 0 0 0 0 0 0 0 0 0 0 0 0 0 0 0 0 0 0 0 0 0 0 0 0 0 0 0 0 0 0 0 0 0 0 0 0 0
0 0 0 0 0 0 0 0 0 0 0 0 0 0 0 0 0 0 0 0 0 0 0 0 0 0 0 0 0 0 0 0 0 0 0 0 0 0 0 0 0 0 0
0 0 0 0 0 0 0 0 0 0 0 0 0 0 0 0 0 0 0 0 0 0 0 0 0 0 0 0 0 0 0 0 0 0 0 0 0 0 0 0 0 0 0
0 0 0 0 0 0 0 0 0 0 0 0 0 0 0 0 0 0 0 0 0 0 0 0 0 0 0 0 0 0 0 0 0 0 0 0 0 0 0 0 0 0 0
0 0 0 0 0 0 0 0 0 0 0 0 0 0 0 0 0 0 0 0 0 0 0 0 0 0 0 0 0 0 0 0 0 0 0 0 0 0 0 0 0 0 0
0 0 0 0 0 0 0 0 0 0 0 0 0 0 0 0 0 0 0 0 0 0 0 0 0 0 0 0 0 0 0 0 0 0 0 0 0 0 0 0 0 0 0
0 0 0 0 0 0 0 0 0 0 0 0 0 0 0 0 0 0 0 0 0 0 0 0 0 0 0 0 0 0 0 0 0 0 0 0 0 0 0 0 0 0 0
0 0 0 0 0 0 0 0 0 0 0 0 0 0 0 0 0 0 0 0 0 0 0 0 0 0 0 0 0 0 0 0 0 0 0 0 0 0 0 0 0 0 0
0 0 0 0 0 0 0 0 0 0 0 0 0 0 0 0 0 0 0 0 0 0 0 0 0 0 0 0 0 0 0 0 0 0 0 0 0 0 0 0 0 0 0
0 0 0 0 0 0 0 0 0 0 0 0 0 0 0 0 0 0 0 0 0 0 0 0 0 0 0 0 0 0 0 0 0 0 0 0 0 0 0 0 0 0 0
0 0 0 0 0 0 0 0 0 0 0 0 0 0 0 0 0 0 0 0 0 0 0 0 0 0 0 0 0 0 0 0 0 0 0 0 0 0 0 0 0 0 0
Wind_Speed
3 4 3 3 4 3 3 3 4 5 5 6 6 6 6 6 6 5 6 11 10 10 10 10 10 10 10 10 9 9 8 8 8 8 7 7 7 7 7 6 5 5 4
3 3 4 3 3 3 3 3 5 4 4 5 6 6 5 5 5 5 5 7 10 10 11 11 11 11 10 9 9 8 8 8 7 7 8 8 7 7 7 7 6 6 5
3 3 3 3 3 3 4 3 5 4 4 4 5 5 4 4 4 4 4 4 5 9 10 10 10 10 10 9 9 9 8 8 7 7 7 7 6 6 6 6 6 7 6
3 3 2 3 3 3 3 3 3 3 4 4 4 3 4 3 4 4 4 4 3 4 7 9 9 9 9 9 9 8 8 7 6 6 6 6 6 6 6 6 6 6 6
2 2 2 2 3 2 2 3 3 3 4 4 4 3 3 3 3 3 4 4 4 3 4 7 8 8 8 8 8 8 7 7 6 5 5 5 4 5 5 5 5 5 5
2 2 2 2 3 2 2 3 4 3 3 3 3 3 3 3 3 3 4 4 3 4 4 3 3 5 7 8 7 7 7 6 5 5 4 4 4 4 4 5 5 5 5
2 2 2 2 2 2 3 3 3 3 2 2 2 2 3 3 3 3 3 2 4 4 2 3 2 2 3 6 6 7 7 6 5 5 4 4 4 4 4 4 4 4 5
2 2 2 2 3 2 3 3 3 1 2 1 1 1 2 3 2 2 2 2 2 2 3 3 2 2 2 2 6 6 7 7 7 6 5 4 4 4 3 3 3 4 4
3 3 3 2 3 3 3 4 3 3 2 2 1 2 1 1 1 2 1 1 1 1 1 2 2 2 2 2 2 5 6 6 6 6 5 5 4 4 3 3 3 3 3
4 4 4 3 4 3 3 4 4 3 3 2 1 1 2 1 1 1 2 1 1 0 1 1 1 1 2 2 3 5 6 6 5 6 5 4 4 4 4 3 2 2 3
4 4 4 4 4 3 4 4 4 4 3 3 2 2 1 1 3 2 1 1 1 1 0 1 1 0 1 1 1 5 5 5 5 5 5 4 4 4 4 3 3 2 2
3 5 5 4 4 4 4 4 4 5 4 3 3 3 3 2 2 2 2 2 1 1 1 1 1 1 0 0 2 4 3 3 4 5 5 4 4 4 4 3 3 3 3
3 5 5 5 4 4 4 4 5 5 5 5 4 3 3 3 2 2 2 2 2 1 2 2 2 2 2 1 2 3 2 1 2 3 3 3 3 3 3 3 2 2 2
3 4 5 5 5 5 5 5 4 5 5 5 5 5 3 3 3 3 2 2 3 2 3 3 2 3 2 2 2 3 2 3 1 1 2 2 2 2 2 2 2 2 2
3 4 4 5 5 5 6 5 5 5 5 5 5 5 4 3 3 3 3 4 4 3 3 2 2 3 3 1 2 3 2 4 2 1 0 1 1 1 1 1 1 2 1
3 4 4 5 5 5 5 5 5 5 6 5 4 5 5 3 3 3 4 4 4 4 3 2 2 2 2 2 2 3 1 5 3 2 1 1 0 1 1 1 1 1 1
4 4 4 5 5 5 5 5 6 6 6 6 6 6 5 4 4 4 3 4 4 4 4 3 2 2 3 3 2 3 2 3 3 4 3 2 2 1 1 1 1 1 1
3 4 4 4 4 5 5 6 6 6 7 7 6 6 6 4 5 4 4 5 4 4 4 4 3 3 4 3 3 3 3 3 2 4 4 3 2 2 1 1 0 0 1
3 3 4 4 4 5 5 6 6 6 6 7 7 7 6 6 6 5 5 5 3 3 4 4 3 2 3 3 3 3 4 3 3 3 5 5 4 3 3 2 1 1 1
4 4 4 4 4 4 5 5 6 6 6 7 6 6 6 6 6 6 5 5 4 4 4 4 4 3 3 4 4 4 3 3 3 3 3 3 4 5 5 4 3 3 2
4 4 4 4 4 4 4 4 5 6 6 6 6 6 6 5 5 5 4 5 5 4 4 4 4 4 4 4 4 4 4 3 3 3 3 3 3 4 4 6 6 5 4
4 4 4 4 4 3 2 3 5 5 6 6 6 6 6 6 6 6 6 6 6 7 6 5 5 6 6 5 4 4 4 4 3 3 3 3 3 3 3 3 3 5 5
4 4 5 4 5 4 2 4 6 6 6 6 6 6 5 5 6 7 7 8 8 8 8 8 7 7 6 5 5 6 5 5 4 2 3 3 3 3 3 2 4 5 5
4 4 4 4 4 3 2 4 5 7 6 6 7 7 6 6 6 6 7 7 8 8 8 8 8 7 5 4 5 6 5 5 3 2 3 4 3 3 2 2 5 5 5
3 4 4 4 4 3 2 3 4 5 5 6 6 6 7 7 4 5 7 7 7 6 5 5 5 4 3 3 4 4 4 4 4 4 4 4 3 3 3 3 3 6 6
3 3 3 3 4 3 2 3 4 4 5 4 4 5 5 6 4 5 7 7 8 6 5 5 5 6 6 6 7 7 6 5 4 4 4 4 3 3 3 3 3 4 5
Wind_Direction
85 90 89 82 78 82 88 86 84 84 83 79 74 70 70 72 73 73 77 63 57 63 67 70 70 71 72 72 70 68 64 63 63 60 61 62 61 64 66 64 64 64 66
87 89 90 86 79 79 83 93 96 94 86 81 77 71 67 67 68 72 74 80 69 61 63 65 65 67 69 68 69 68 64 64 63 61 60 59 58 57 61 58 61 60 61
91 90 90 92 87 89 95 91 97 97 95 95 87 77 68 60 62 68 67 65 82 78 68 64 63 63 62 63 65 65 63 62 61 60 57 54 53 57 63 63 61 61 56
96 88 94 98 99 94 95 99 104 102 99 92 83 77 76 71 61 62 72 73 65 76 83 70 62 59 60 62 62 62 63 62 61 59 57 54 55 59 62 59 60 58 55
115 113 105 115 115 113 106 108 102 98 97 89 83 76 68 63 57 56 67 70 74 76 84 90 76 60 56 57 58 56 59 57 55 54 53 50 51 61 67 67 61 57 58
132 127 142 147 133 134 124 119 110 105 100 100 92 82 72 70 64 50 51 62 63 65 66 76 94 87 70 60 55 49 47 47 50 50 49 48 51 61 70 73 67 65 63
166 150 162 156 160 153 148 143 130 129 126 117 123 116 105 76 67 66 54 57 67 57 59 66 59 60 93 86 57 46 39 38 42 45 49 49 48 56 73 78 73 65 62
185 183 185 177 176 168 172 162 157 159 145 184 211 180 157 150 118 86 90 68 58 64 47 49 57 58 40 59 74 48 31 31 34 37 43 44 46 53 62 75 80 70 64
199 203 202 200 191 195 185 182 182 188 190 200 266 290 268 118 121 137 101 106 75 64 59 42 50 50 46 46 70 70 36 23 28 33 40 46 53 54 63 78 85 74 71
204 209 210 211 209 209 199 201 197 200 206 204 199 278 316 353 262 164 169 138 99 50 23 32 41 57 48 49 67 57 42 24 23 30 33 39 45 53 61 67 70 79 80
207 207 215 217 219 217 214 212 207 211 215 224 227 215 214 232 258 257 228 212 198 198 233 274 220 147 70 59 58 66 49 29 26 28 28 36 44 50 53 55 56 66 73
205 205 213 221 221 222 217 213 212 215 227 231 239 236 235 239 242 252 251 239 245 225 219 226 237 203 218 197 88 78 58 34 31 27 26 29 34 39 38 42 52 53 53
212 208 211 219 217 216 218 216 219 222 222 228 239 247 249 253 258 266 263 261 268 244 221 217 204 202 205 212 131 126 122 81 41 28 22 21 22 25 26 28 36 37 43
223 217 217 219 218 218 219 218 228 227 228 228 235 238 242 245 247 252 258 261 262 247 229 218 187 204 213 219 110 220 159 141 111 43 18 13 13 20 31 28 20 25 30
217 216 219 218 217 218 218 215 223 225 228 232 236 237 238 236 237 243 246 252 265 267 255 230 207 208 216 221 167 226 209 124 135 141 317 328 350 19 45 24 17 30 25
213 213 220 217 213 213 214 215 224 230 227 225 233 241 239 236 234 233 237 245 258 272 269 259 241 215 210 221 199 238 204 139 167 180 186 193 184 103 63 46 25 25 1
212 215 216 220 217 214 211 208 219 221 226 226 222 229 231 234 232 232 231 234 241 248 251 257 244 210 211 220 202 232 220 214 173 167 173 172 161 135 98 77 57 66 77
211 216 215 218 214 214 215 216 219 219 223 227 228 229 229 223 232 236 230 230 231 237 240 247 233 221 225 221 223 231 230 226 217 155 172 189 190 178 174 173 164 175 155
209 214 215 218 218 219 217 223 227 228 228 231 232 231 232 230 229 227 228 235 236 234 238 238 236 222 225 216 221 229 233 227 225 178 182 197 199 205 205 203 200 204 209
216 217 219 218 223 227 229 229 230 231 232 233 233 232 232 233 235 230 229 234 235 233 237 238 234 220 219 220 222 224 226 219 222 214 202 205 191 202 213 213 210 207 209
224 221 225 223 221 228 240 243 241 241 238 234 232 233 232 236 256 248 243 237 234 234 234 236 235 230 223 216 224 225 228 229 224 225 218 215 211 214 206 206 208 203 200
221 216 223 229 226 228 235 255 261 248 247 242 237 236 229 221 223 225 239 244 244 241 240 237 238 236 237 232 228 227 227 227 234 207 229 230 229 231 227 223 169 177 198
215 218 222 228 234 232 212 230 251 257 250 246 240 236 232 228 223 226 219 221 231 242 248 253 249 247 242 234 228 227 228 234 244 206 223 238 225 236 226 198 161 186 203
211 219 222 227 240 244 227 238 250 251 251 246 242 242 241 238 229 233 234 232 233 229 232 240 250 252 251 243 234 236 238 237 248 226 226 248 234 238 228 215 167 187 201
217 221 223 224 231 236 217 233 243 250 251 250 251 249 248 248 232 230 241 241 238 232 220 228 254 260 263 251 245 223 217 221 235 226 217 242 238 239 238 229 182 182 194
226 226 225 227 233 241 206 221 246 248 252 253 254 249 249 251 236 221 237 241 243 239 227 208 214 223 228 216 212 223 224 225 236 235 207 226 233 230 239 218 206 192 196